This demonstration page uses our WeatherBlox Daily Observations layout. Learn more.

Hourly Observations for June 7, 2017

Temp ( °F °C ) Dew Point ( °F °C ) Humidity (%) Winds ( mph kmh ) Pressure ( in mb ) Visibility ( mi km ) Precip ( " mm )
12:15 am 00:15 Clear 63 17 54 12 73 73 N 8 13 29.88 1012 10 16.09344 0 0
12:35 am 00:35 Clear 59 15 54 12 82 82 NW 5 7 29.88 1012 10 16.09344 0 0
12:55 am 00:55 Clear 61 16 54 12 77 77 Calm 29.88 1012 10 16.09344 0 0
1:15 am 01:15 Clear 59 15 54 12 82 82 Calm 29.88 1012 10 16.09344 0 0
1:35 am 01:35 Clear 61 16 54 12 77 77 Calm 29.88 1012 10 16.09344 0 0
1:55 am 01:55 Clear 59 15 54 12 82 82 Calm 29.88 1012 10 16.09344 0 0
2:15 am 02:15 Clear 59 15 54 12 82 82 Calm 29.88 1012 10 16.09344 0 0
2:35 am 02:35 Clear 55 13 54 12 94 94 NNW 5 7 29.88 1012 10 16.09344 0 0
2:55 am 02:55 Clear 59 15 54 12 82 82 NNW 3 6 29.88 1012 10 16.09344 0 0
3:15 am 03:15 Clear 55 13 54 12 94 94 Calm 29.88 1012 10 16.09344 0 0
3:35 am 03:35 Clear 57 14 54 12 88 88 Calm 29.88 1012 10 16.09344 0 0
3:55 am 03:55 Clear 57 14 54 12 88 88 N 3 6 29.88 1012 10 16.09344 0 0
4:15 am 04:15 Partly Cloudy 54 12 54 12 100 100 Calm 29.88 1012 10 16.09344 0 0
4:35 am 04:35 Partly Cloudy 55 13 54 12 94 94 Calm 29.88 1012 10 16.09344 0 0
4:55 am 04:55 Mostly Cloudy 57 14 54 12 88 88 Calm 29.88 1012 10 16.09344 0 0
5:15 am 05:15 Mostly Cloudy 57 14 54 12 88 88 Calm 29.91 1013 10 16.09344 0 0
5:35 am 05:35 Partly Cloudy 55 13 54 12 94 94 Calm 29.91 1013 10 16.09344 0 0
5:55 am 05:55 Partly Cloudy 57 14 54 12 88 88 NNE 3 6 29.91 1013 10 16.09344 0 0
6:15 am 06:15 Partly Cloudy 57 14 55 13 94 94 Calm 29.91 1013 10 16.09344 0 0
6:35 am 06:35 Mostly Cloudy 57 14 55 13 94 94 Calm 29.91 1013 10 16.09344 0 0
6:55 am 06:55 Cloudy 59 15 55 13 88 88 Calm 29.91 1013 10 16.09344 0 0
7:15 am 07:15 Mostly Cloudy 59 15 57 14 94 94 NE 3 6 29.94 1014 10 16.09344 0 0
7:35 am 07:35 Mostly Cloudy 61 16 59 15 94 94 Calm 29.94 1014 10 16.09344 0 0
7:55 am 07:55 Cloudy 61 16 59 15 94 94 NE 3 6 29.94 1014 10 16.09344 0 0
8:15 am 08:15 Cloudy 63 17 61 16 94 94 ENE 5 7 29.94 1014 10 16.09344 0 0
8:35 am 08:35 Cloudy 63 17 61 16 94 94 NE 6 9 29.94 1014 10 16.09344 0 0
8:55 am 08:55 Mostly Cloudy 63 17 61 16 94 94 NE 3 6 29.97 1015 10 16.09344 0 0
9:15 am 09:15 Cloudy 64 18 61 16 88 88 Calm 29.97 1015 10 16.09344 0 0
9:35 am 09:35 Cloudy 64 18 61 16 88 88 NE 6 9 29.97 1015 10 16.09344 0 0
9:55 am 09:55 Partly Cloudy 64 18 61 16 88 88 E 3 6 29.97 1015 10 16.09344 0 0
10:15 am 10:15 Partly Cloudy 66 19 61 16 83 83 E 3 6 29.97 1015 10 16.09344 0 0
10:35 am 10:35 Mostly Cloudy 66 19 59 15 78 78 NE 7 11 29.97 1015 10 16.09344 0 0
10:55 am 10:55 Cloudy with Light Rain 64 18 61 16 88 88 NE 8 13 29.97 1015 10 16.09344 0 0
11:15 am 11:15 Cloudy 64 18 59 15 83 83 E 5 7 29.97 1015 10 16.09344 0 0
11:35 am 11:35 Mostly Cloudy 68 20 59 15 73 73 NE 9 15 29.97 1015 10 16.09344 0 0
11:55 am 11:55 Cloudy 68 20 59 15 73 73 ENE 6 9 29.97 1015 10 16.09344 0 0
12:15 pm 12:15 Cloudy 68 20 59 15 73 73 ESE 9 15 29.97 1015 10 16.09344 0 0
12:35 pm 12:35 Cloudy 68 20 59 15 73 73 E 3 6 29.97 1015 10 16.09344 0 0
12:55 pm 12:55 Cloudy 70 21 59 15 69 69 ESE 6 9 29.97 1015 10 16.09344 0 0
1:15 pm 13:15 Cloudy 70 21 59 15 69 69 ESE 9 15 29.97 1015 10 16.09344 0 0
1:35 pm 13:35 Cloudy 68 20 59 15 73 73 E 8 13 29.97 1015 10 16.09344 0 0
1:55 pm 13:55 Cloudy 68 20 59 15 73 73 ESE 8 13 29.97 1015 10 16.09344 0 0
2:15 pm 14:15 Cloudy 68 20 59 15 73 73 ESE 7 11 30 1016 10 16.09344 0 0
2:35 pm 14:35 Cloudy 66 19 59 15 78 78 ENE 12 19 30 1016 10 16.09344 0 0
2:55 pm 14:55 Cloudy 64 18 57 14 78 78 ENE 15 24 30 1016 10 16.09344 0 0
3:15 pm 15:15 Cloudy 64 18 57 14 78 78 NE 12 19 30 1016 10 16.09344 0 0
3:35 pm 15:35 Cloudy 64 18 57 14 78 78 NNE 9 15 30 1016 10 16.09344 0 0
3:55 pm 15:55 Cloudy 64 18 57 14 78 78 ENE 10 17 30 1016 10 16.09344 0 0
4:15 pm 16:15 Cloudy 64 18 57 14 78 78 NE 12 19 30 1016 10 16.09344 0 0
4:35 pm 16:35 Cloudy 64 18 57 14 78 78 NE 8 13 30.03 1017 10 16.09344 0 0
4:55 pm 16:55 Cloudy 64 18 57 14 78 78 NE 7 11 30.03 1017 10 16.09344 0 0
5:15 pm 17:15 Cloudy 64 18 57 14 78 78 NE 5 7 30.03 1017 10 16.09344 0 0
5:35 pm 17:35 Cloudy 64 18 59 15 83 83 ESE 5 7 30.03 1017 10 16.09344 0 0
5:55 pm 17:55 Cloudy 64 18 57 14 78 78 Calm 30.03 1017 10 16.09344 0 0
6:15 pm 18:15 Cloudy 64 18 59 15 83 83 NNE 3 6 30.03 1017 10 16.09344 0 0
6:35 pm 18:35 Cloudy 63 17 59 15 88 88 NNE 7 11 30.03 1017 10 16.09344 0 0
6:55 pm 18:55 Cloudy 63 17 57 14 83 83 NE 9 15 30.03 1017 10 16.09344 0 0
7:15 pm 19:15 Cloudy 63 17 57 14 83 83 NE 7 11 30.03 1017 10 16.09344 0 0
7:35 pm 19:35 Cloudy 63 17 57 14 83 83 NE 5 7 30.03 1017 10 16.09344 0 0
7:55 pm 19:55 Cloudy 63 17 55 13 77 77 ENE 3 6 30.03 1017 10 16.09344 0 0
8:15 pm 20:15 Cloudy 63 17 55 13 77 77 Calm 30.06 1018 10 16.09344 0 0
8:35 pm 20:35 Cloudy 63 17 55 13 77 77 ENE 6 9 30.06 1018 10 16.09344 0 0
8:55 pm 20:55 Cloudy 63 17 55 13 77 77 NE 3 6 30.06 1018 10 16.09344 0 0
9:15 pm 21:15 Cloudy 63 17 55 13 77 77 NE 3 6 30.06 1018 10 16.09344 0 0
9:35 pm 21:35 Mostly Cloudy 63 17 55 13 77 77 Calm 30.06 1018 10 16.09344 0 0
9:55 pm 21:55 Partly Cloudy 61 16 54 12 77 77 Calm 30.06 1018 10 16.09344 0 0
10:15 pm 22:15 Mostly Cloudy 61 16 55 13 83 83 Calm 30.06 1018 10 16.09344 0 0
10:35 pm 22:35 Mostly Cloudy 61 16 55 13 83 83 Calm 30.06 1018 10 16.09344 0 0
10:55 pm 22:55 Partly Cloudy 59 15 55 13 88 88 Calm 30.06 1018 10 16.09344 0 0
11:15 pm 23:15 Partly Cloudy 57 14 55 13 94 94 Calm 30.06 1018 10 16.09344 0 0
11:35 pm 23:35 Clear 55 13 55 13 100 100 Calm 30.06 1018 10 16.09344 0 0
11:55 pm 23:55 Clear 55 13 55 13 100 100 Calm 30.06 1018 10 16.09344 0 0

Powered by AerisWeather